EHI
0 0 0 0 0 0 0 0 0 0 0 0 0 0 0 0 0 0 0 0 0 0 0 0 0 0 0 0 0 0 0 0 0 0 0 0 0 0 0 0 0 0 0 0
0 0 0 0 0 0 0 0 0 0 0 0 0 0 0 0 0 0 0 0 0 0 0 0 0 0 0 0 0 0 0 0 0 0 0 0 0 0 0 0 0 0 0 0
0 0 0 0 0 0 0 0 0 0 0 0 0 0 0 0 0 0 0 0 0 0 0 0 0 0 0 0 0 0 0 0 0 0 0 0 0 0 0 0 0 0 0 0
0 0 0 0 0 0 0 0 0 0 0 0 0 0 0 0 0 0 0 0 0 0 0 0 0 0 0 0 0 0 0 0 0 0 0 0 0 0 0 0 0 0 0 0
0 0 0 0 0 0 0 0 0 0 0 0 0 0 0 0 0 0 0 0 0 0 0 0 0 0 0 0 0 0 0 0 0 0 0 0 0 0 0 0 0 0 0 0
0 0 0 0 0 0 0 0 0 0 0 0 0 0 0 0 0 0 0 0 0 0 0 0 0 0 0 0 0 0 0 0 0 0 0 0 0 0 0 0 0 0 0 0
0 0 0 0 0 0 0 0 0 0 0 0 0 0 0 0 0 0 0 0 0 0 0 0 0 0 0 0 0 0 0 0 0 0 0 0 0 0 0 0 0 0 0 0
0 0 0 0 0 0 0 0 0 0 0 0 0 0 0 0 0 0 0 0 0 0 0 0 0 0 0 0 0 0 0 0 0 0 0 0 0 0 0 0 0 0 0 0
0 0 0 0 0 0 0 0 0 0 0 0 0 0 0 0 0 0 0 0 0 0 0 0 0 0 0 0 0 0 0 0 0 0 0 0 0 0 0 0 0 0 0 0
0 0 0 0 0 0 0 0 0 0 0 0 0 0 0 0 0 0 0 0 0 0 0 0 0 0 0 0 0 0 0 0 0 0 0 0 0 0 0 0 0 0 0 0
0 0 0 0 0 0 0 0 0 0 0 0 0 0 0 0 0 0 0 0 0 0 0 0 0 0 0 0 0 0 0 0 0 0 0 0 0 0 0 0 0 0 0 0
0 0 0 0 0 0 0 0 0 0 0 0 0 0 0 0 0 0 0 0 0 0 0 0 0 0 0 0 0 0 0 0 0 0 0 0 0 0 0 0 0 0 0 0
0 0 0 0 0 0 0 0 0 0 0 0 0 0 0 0 0 0 0 0 0 0 0 0 0 0 0 0 0 0 0 0 0 0 0 0 0 0 0 0 0 0 0 0
0 0 0 0 0 0 0 0 0 0 0 0 0 0 0 0 0 0 0 0 0 0 0 0 0 0 0 0 0 0 0 0 0 0 0 0 0 0 0 0 0 0 0 0
0 0 0 0 0 0 0 0 0 0 0 0 0 0 0 0 0 0 0 0 0 0 0 0 0 0 0 0 0 0 0 0 0 0 0 0 0 0 0 0 0 0 0 0
0 0 0 0 0 0 0 0 0 0 0 0 0 0 0 0 0 0 0 0 0 0 0 0 0 0 0 0 0 0 0 0 0 0 0 0 0 0 0 0 0 0 0 0
0 0 0 0 0 0 0 0 0 0 0 0 0 0 0 0 0 0 0 0 0 0 0 0 0 0 0 0 0 0 0 0 0 0 0 0 0 0 0 0 0 0 0 0
0 0 0 0 0 0 0 0 0 0 0 0 0 0 0 0 0 0 0 0 0 0 0 0 0 0 0 0 0 0 0 0 0 0 0 0 0 0 0 0 0 0 0 0
0 0 0 0 0 0 0 0 0 0 0 0 0 0 0 0 0 0 0 0 0 0 0 0 0 0 0 0 0 0 0 0 0 0 0 0 0 0 0 0 0 0 0 0
0 0 0 0 0 0 0 0 0 0 0 0 0 0 0 0 0 0 0 0 0 0 0 0 0 0 0 0 0 0 0 0 0 0 0 0 0 0 0 0 0 0 0 0
0 0 0 0 0 0 0 0 0 0 0 0 0 0 0 0 0 0 0 0 0 0 0 0 0 0 0 0 0 0 0 0 0 0 0 0 0 0 0 0 0 0 0 0
0 0 0 0 0 0 0 0 0 0 0 0 0 0 0 0 0 0 0 0 0 0 0 0 0 0 0 0 0 0 0 0 0 0 0 0 0 0 0 0 0 0 0 0
0 0 0 0 0 0 0 0 0 0 0 0 0 0 0 0 0 0 0 0 0 0 0 0 0 0 0 0 0 0 0 0 0 0 0 0 0 0 0 0 0 0 0 0
0 0 0 0 0 0 0 0 0 0 0 0 0 0 0 0 0 0 0 0 0 0 0 0 0 0 0 0 0 0 0 0 0 0 0 0 0 0 0 0 0 0 0 0
0 0 0 0 0 0 0 0 0 0 0 0 0 0 0 0 0 0 0 0 0 0 0 0 0 0 0 0 0 0 0 0 0 0 0 0 0 0 0 0 0 0 0 0
0 0 0 0 0 0 0 0 0 0 0 0 0 0 0 0 0 0 0 0 0 0 0 0 0 0 0 0 0 0 0 0 0 0 0 0 0 0 0 0 0 0 0 0
0 0 0 0 0 0 0 0 0 0 0 0 0 0 0 0 0 0 0 0 0 0 0 0 0 0 0 0 0 0 0 0 0 0 0 0 0 0 0 0 0 0 0 0
Wind_Speed
4 3 2 4 6 6 8 7 7 7 8 9 4 3 2 1 1 1 1 0 0 0 0 0 0 1 1 1 1 0 0 1 1 0 0 0 0 0 0 0 1 0 0 1
3 4 4 6 8 9 10 9 10 10 13 8 4 2 3 2 1 1 2 1 1 1 1 1 1 1 1 1 1 1 1 0 0 0 0 0 0 0 0 0 1 0 1 1
3 1 3 8 10 11 8 8 8 11 11 5 3 2 3 2 1 1 2 2 2 1 2 2 2 1 2 2 1 1 0 0 0 0 0 0 0 0 0 0 0 1 1 1
2 1 7 7 2 5 7 8 8 7 6 4 2 2 2 1 1 2 2 2 2 2 2 2 1 1 1 1 1 1 0 0 0 1 0 0 0 0 1 0 0 1 1 1
2 4 8 5 3 3 3 5 4 5 5 3 2 2 2 1 1 2 2 2 2 2 1 1 1 1 1 1 1 1 1 1 0 0 0 0 1 1 1 0 1 1 1 1
3 4 7 3 1 2 2 5 2 2 2 1 1 1 3 1 2 2 2 1 1 1 1 1 1 1 2 2 1 2 2 1 1 1 1 1 1 1 1 1 1 1 1 1
5 6 7 3 1 3 3 5 0 1 1 1 1 3 2 1 2 2 2 1 1 1 1 1 1 1 2 2 2 2 1 1 1 1 1 1 1 1 1 1 1 1 2 2
5 6 9 2 3 4 4 1 1 1 1 1 2 3 2 2 2 1 2 2 2 1 2 2 1 2 2 3 3 1 1 1 1 1 1 1 1 1 1 1 1 1 1 2
7 7 3 2 3 3 1 2 2 2 2 1 2 3 3 2 2 2 2 2 2 2 2 2 2 1 2 3 1 1 1 2 1 1 1 1 1 1 1 1 1 1 1 2
4 6 4 4 3 3 3 3 3 2 2 2 3 3 3 2 2 2 2 2 2 2 2 3 2 2 2 2 1 1 2 2 1 1 1 1 1 1 1 1 2 2 2 2
6 6 4 4 4 4 3 3 3 3 3 3 3 4 3 3 3 2 2 2 1 2 3 3 3 2 2 2 2 1 2 2 1 1 1 1 1 1 2 2 2 2 2 2
6 4 4 4 3 3 4 4 3 3 4 3 3 4 4 3 3 2 3 2 2 3 3 3 3 3 2 2 2 2 1 1 1 1 1 1 1 1 2 3 4 4 3 3
6 5 5 6 4 4 4 4 4 3 4 4 3 3 3 3 3 2 3 3 3 3 4 3 3 3 3 2 2 2 2 2 1 1 1 2 1 1 2 3 4 4 5 5
4 4 5 5 4 4 4 4 4 4 3 3 3 3 3 3 3 3 3 3 3 3 3 3 3 4 3 2 2 2 2 2 2 2 2 2 2 2 2 2 2 2 4 5
4 4 5 5 4 4 3 3 3 4 3 3 2 3 3 3 3 4 3 3 2 3 3 2 3 3 2 2 2 2 2 2 2 2 2 2 2 1 1 2 2 2 2 3
5 4 4 4 4 4 3 3 3 4 3 3 2 3 3 3 3 3 3 2 3 3 3 3 4 3 2 2 2 2 2 3 3 2 2 2 1 2 2 2 2 2 2 2
3 4 4 5 5 4 4 4 4 3 3 3 3 2 2 3 3 3 3 3 3 4 3 3 4 3 2 3 2 2 2 2 3 2 2 2 2 2 2 2 2 2 2 3
4 4 4 4 4 4 5 4 3 3 3 3 2 2 2 3 4 4 4 3 3 3 3 3 3 2 2 2 2 2 2 2 2 2 2 2 2 2 2 2 2 2 2 2
3 3 3 3 3 3 4 4 4 3 3 2 2 3 3 4 4 4 3 3 3 4 4 3 4 2 2 3 2 2 2 2 2 2 2 3 3 2 2 2 2 2 2 2
3 3 3 3 3 3 4 4 3 3 3 2 2 3 3 3 3 3 3 4 4 3 3 3 2 2 2 3 3 2 2 2 2 2 2 2 3 2 2 2 2 2 2 2
4 4 4 4 4 4 4 3 3 4 3 3 3 4 4 4 3 3 3 4 3 2 3 4 2 2 2 3 3 2 2 2 3 3 3 3 3 3 2 2 2 2 2 2
4 4 4 4 3 4 3 3 3 3 3 3 3 3 3 3 3 3 4 4 3 4 2 2 2 3 4 3 2 2 3 3 3 3 3 3 3 2 2 2 2 2 2 2
3 3 4 4 4 4 4 3 3 3 4 4 4 4 4 4 3 3 4 3 2 4 3 2 4 5 5 2 2 2 3 3 3 3 3 3 3 3 3 3 2 2 2 2
3 3 3 3 3 3 4 4 3 3 4 4 4 4 4 3 3 3 3 4 5 5 3 4 6 6 5 2 2 2 3 3 3 3 2 2 2 2 2 2 2 2 2 2
3 3 3 3 3 3 3 3 3 3 3 3 3 3 3 2 3 3 2 3 5 4 3 4 6 5 2 1 2 2 2 3 3 2 2 2 2 2 2 2 2 2 2 2
3 3 3 3 3 3 2 2 2 2 2 2 3 2 2 2 2 2 2 2 3 4 3 2 3 3 2 2 2 2 2 3 3 2 2 2 2 2 2 2 2 2 2 2
3 2 2 2 2 2 2 2 2 3 2 2 3 3 2 2 2 2 2 2 2 2 2 2 2 2 2 2 2 2 2 2 2 2 2 2 2 2 2 3 2 2 2 2
Wind_Direction
274 280 244 230 228 216 219 223 230 251 259 265 266 282 295 314 325 335 329 291 207 241 312 311 335 345 341 340 342 339 269 222 223 260 23 55 298 311 307 292 295 291 312 333
273 247 248 256 242 230 235 238 245 264 272 265 268 273 294 307 299 287 288 295 286 263 278 268 264 278 301 296 298 318 307 284 336 114 100 69 34 356 322 298 294 305 276 285
260 248 316 262 233 217 218 218 218 239 252 276 281 283 282 286 296 262 283 287 286 257 248 243 239 234 242 248 264 293 306 313 60 89 71 13 359 357 313 295 305 306 285 283
266 306 247 243 217 195 214 236 230 244 260 265 265 292 303 329 321 306 301 296 287 271 263 255 229 235 259 273 264 226 217 184 97 89 69 2 353 314 300 304 295 288 299 298
216 245 264 264 248 185 203 260 235 237 258 281 318 318 293 321 312 284 286 286 279 260 249 243 216 200 232 252 267 237 225 207 195 179 184 296 296 296 298 312 323 305 311 319
215 238 249 246 115 103 97 274 256 192 239 285 18 286 265 351 7 335 325 314 304 299 285 244 231 200 214 227 225 231 232 232 212 197 204 236 245 263 288 307 292 307 311 304
224 243 263 258 168 127 187 251 294 142 178 153 212 234 262 316 329 326 331 333 341 336 308 265 239 220 227 228 233 236 221 210 220 212 212 222 238 252 249 266 290 296 294 298
201 224 250 196 148 194 226 328 342 313 257 216 257 280 287 296 307 317 321 325 335 333 312 298 250 224 231 239 241 229 201 204 225 225 229 216 195 242 251 240 254 270 276 293
201 221 237 186 206 236 296 298 302 305 304 266 269 275 277 279 281 283 289 302 312 303 298 297 270 227 238 256 238 213 210 217 222 232 238 219 199 217 240 240 243 260 265 279
255 257 252 256 267 286 295 286 290 285 284 278 266 264 269 280 284 286 283 281 278 282 285 290 287 255 249 268 242 210 230 233 217 208 229 252 259 235 230 237 234 246 257 267
255 267 286 263 255 267 281 289 294 290 269 256 253 260 265 271 266 265 271 269 257 257 269 277 283 263 259 252 221 219 234 234 223 210 214 242 262 262 258 255 243 243 242 242
248 261 259 267 261 270 272 275 272 276 277 266 245 251 260 260 258 257 261 260 258 259 265 271 277 272 269 253 214 209 232 231 225 220 224 232 248 297 294 274 289 287 281 274
262 279 278 284 288 284 279 279 272 262 262 270 266 249 248 255 256 247 251 251 248 250 255 260 266 271 272 261 227 212 223 232 229 226 230 231 232 239 278 298 291 291 290 289
283 293 284 284 290 297 292 287 279 269 259 251 251 251 243 251 255 254 256 256 251 251 254 256 263 268 268 256 232 225 228 238 239 226 224 229 231 235 241 263 292 300 295 292
294 283 275 289 292 295 298 296 291 279 267 261 250 249 242 246 254 260 263 262 259 257 258 259 264 272 269 243 233 230 229 238 238 231 226 232 235 237 242 253 267 286 301 296
292 289 284 286 286 288 290 284 276 279 278 269 266 262 258 257 261 269 273 261 250 259 261 255 258 264 252 230 233 239 233 238 243 232 225 228 231 235 239 244 250 257 265 272
281 282 282 286 287 286 282 277 272 277 283 273 270 271 269 269 274 277 278 268 258 261 258 252 260 260 240 228 222 230 234 239 241 242 230 225 228 233 238 241 246 252 256 262
262 270 274 277 279 281 282 280 277 274 273 277 277 276 270 263 265 272 278 284 285 281 273 262 263 260 239 225 222 224 226 230 231 227 229 233 238 235 236 240 246 252 260 267
277 279 287 288 283 278 274 273 274 275 275 271 267 267 266 264 263 270 275 272 269 274 277 268 270 261 239 234 232 220 214 219 236 237 228 239 249 246 242 243 247 247 248 252
288 288 287 287 284 276 278 280 280 278 271 264 267 272 274 273 272 276 275 266 259 264 273 273 264 248 237 233 232 217 214 224 230 235 228 224 229 237 240 242 242 243 241 241
290 291 286 283 285 284 275 272 272 271 270 257 249 256 264 273 274 271 271 276 275 272 269 270 270 254 239 235 231 214 216 228 231 233 232 230 231 235 236 233 239 245 246 246
287 286 285 284 283 286 285 276 269 269 270 262 256 255 262 271 274 272 260 258 269 278 278 258 255 254 255 250 227 220 226 229 232 234 237 233 229 228 230 231 238 246 248 245
288 285 285 285 281 284 289 282 269 264 261 256 251 249 251 256 256 260 275 272 268 272 275 258 259 260 261 249 230 231 234 235 236 235 236 233 225 220 223 230 236 239 239 245
288 286 283 284 284 282 284 284 277 272 267 264 255 248 249 262 270 258 263 275 279 280 277 270 269 266 264 244 228 231 236 238 236 234 232 233 229 225 224 225 228 230 233 240
285 284 282 283 281 276 277 284 286 280 277 278 276 267 256 250 259 274 277 272 275 284 283 275 277 279 277 251 240 239 239 240 238 231 223 227 231 228 225 224 224 226 232 236
281 279 275 266 267 274 277 274 275 275 276 285 293 290 285 282 275 278 279 274 269 280 282 273 269 275 267 250 247 246 242 247 254 249 237 234 232 230 226 225 230 235 238 240
276 277 283 285 281 271 269 269 272 275 272 272 287 291 291 292 290 288 287 286 283 281 280 276 269 263 261 255 252 251 247 242 241 240 236 234 230 229 226 226 234 239 242 244